Regional Weather Roundup
Issued by NWS Green Bay, WI

Home | Current Version | Previous Version | Text Only | Print | Product List | Glossary On
Versions: 1 2 3 4 5 6 7 8 9 10 11 12 13 14 15 16 17 18 19 20 21 22 23 24 25 26 27 28 29 30 31 32 33 34 35 36 37 38 39 40 41 42 43 44 45 46 47 48 49 50
000
ASUS43 KGRB 221710
RWRGRB

NORTH-CENTRAL AND NORTHEAST WISCONSIN REGIONAL WEATHER ROUNDUP
NATIONAL WEATHER SERVICE GREEN BAY WI
1200 PM CDT TUE JUL 22 2014

WIZ005-009-010>012-018-019-221800-
NORTH CENTRAL WISCONSIN

CITY           SKY/WX    TMP DP  RH WIND       PRES   REMARKS
IRONWOOD       CLOUDY    73  64  73 W15G29    29.87R
MANITOWISH WTR CLOUDY    74  65  75 NW13      29.90S
ARBOR VITAE    PTSUNNY   77  65  65 NW14G23   29.91R
EAGLE RIVER    CLOUDY    76  63  63 W15G25    29.89R
LAND O LAKES   PTSUNNY   75  64  68 NW14G23   29.89R
RHINELANDER    MOSUNNY   79  65  62 NW9G22    29.90R
PHILLIPS       PTSUNNY   77  65  66 NW13G24   29.91S
ANTIGO         CLOUDY    80  70  72 NW16G26   29.88R
TOMAHAWK       MOSUNNY   78  65  62 NW13G20   29.90S
MERRILL        SUNNY     82  67  60 NW13      29.88R
$$

WIZ013-073-221800-
NORTHEAST WISCONSIN

CITY           SKY/WX    TMP DP  RH WIND       PRES   REMARKS
IRON MOUNTAIN  PTSUNNY   86  69  56 W14G22    29.80R HX  90
MARINETTE      CLOUDY    81  72  74 SW12G17   29.82R
OCONTO         CLOUDY    84  73  69 W12G22    29.84S
$$

WIZ017-030-035>037-045-221800-
CENTRAL WISCONSIN

CITY           SKY/WX    TMP DP  RH WIND       PRES   REMARKS
MEDFORD        MOSUNNY   78  66  66 NW15      29.93R
WAUSAU         PTSUNNY   85  70  60 W15G29    29.86R
MOSINEE        PTSUNNY   84  72  65 W14       29.89S
MARSHFIELD     PTSUNNY   84  72  67 NW20      29.90R
WISC RAPIDS    MOSUNNY   88  72  58 W14       29.90R HX  94
STEVENS POINT  PTSUNNY   83  70  64 W13       29.89R
WAUPACA        MOSUNNY   88  71  57 SW14      29.88S HX  94
SHAWANO        PTSUNNY   85  72  65 SW10G21   29.86S HX  91
CLINTONVILLE   CLOUDY    86  70  58 SW10G17   29.86S HX  90
$$

WIZ038-039-048-051-221800-
FOX VALLEY

CITY           SKY/WX    TMP DP  RH WIND       PRES   REMARKS
NWS GREEN BAY  MOSUNNY   85  73  67 SW13G22   29.86F HX  91
APPLETON       PTSUNNY   82  70  65 SW16G22   29.89F
OSHKOSH        MOSUNNY   85  73  67 SW16G26   29.87F HX  91
FOND DU LAC    CLOUDY    84  71  65 SW12      29.91F
$$

WIZ022-050-052-221800-
EAST CENTRAL WISCONSIN

CITY           SKY/WX    TMP DP  RH WIND       PRES   REMARKS
STURGEON BAY   PTSUNNY   84  72  65 SW18G26   29.85S
MANITOWOC      MOSUNNY   85  72  65 W16G22    29.88F HX  91
SHEBOYGAN      PTSUNNY   85  72  65 SW17      29.91F HX  91
$$

LMZ563-521-522-541>543-221800-
LAKESHORE

STATION/POSITION TIME  TEMP    WIND        PRES    VSBY  WAVE
                       AIR SEA DIR/SP/G                  HT/PER
                 (UTC) (F)     (DEG/KT/KT) (MB)    (MI)  (FT/S)
SHEBOYGAN LKSHOR 1700   73     180/ 21/ 25 1012.3F
KEWAUNEE LKSHORE 1700   57     170/ 12/ 16 1012.1F
NORTHPORT PIER   1700   72     150/  8/ 14 1009.5S
N MID LAKE BUOY  1700   63 57  210/ 25/ 31 1008.7F         6/ 6
CHAMBERS ISLAND  1700   78     190/  8/ 18 1010.2R
MENOMINEE LKSHOR 1700   82     240/ 14/ 21 1010.9R
$$


USA.gov is the U.S. government's official web portal to all federal, state and local government web resources and services.